Temp
11 11 11 11 12 12 13 13 12 12 12 12 12 12 12 12 12 12 13 13 13 13 13 13 14 14 14 14 14 14 14 15
11 10 11 11 12 12 12 12 12 12 11 11 12 11 12 12 12 12 12 12 12 13 13 13 13 13 14 14 14 14 14 15
10 10 10 11 11 11 11 11 11 11 11 11 11 11 11 12 12 12 12 12 12 12 12 13 13 13 13 14 14 14 14 14
10 10 10 10 11 11 11 11 11 11 11 11 11 11 12 12 12 12 12 12 12 13 13 12 13 13 13 13 13 14 14 14
10 10 10 10 10 10 11 11 11 10 11 11 11 11 11 11 11 12 12 12 12 13 13 13 13 13 13 13 13 13 13 14
9 9 9 9 10 10 11 11 10 10 10 10 10 11 11 11 11 11 11 11 11 12 12 12 12 13 13 13 13 13 13 13
9 9 9 9 10 10 10 10 10 10 10 10 10 10 9 9 9 10 10 10 10 11 11 11 12 12 12 12 12 13 13 12
9 9 9 9 9 10 10 9 9 9 9 9 9 9 9 9 9 9 9 9 9 9 10 10 10 10 10 10 10 10 10 10
9 9 9 8 9 9 9 9 9 9 9 8 8 8 8 8 8 8 8 8 9 9 9 9 8 8 8 8 8 9 9 9
9 9 9 8 8 8 8 8 8 8 8 8 8 8 8 8 8 8 8 8 8 9 9 9 8 7 8 8 8 8 8 8
10 9 9 8 8 8 8 8 8 8 7 7 7 7 7 8 8 7 7 7 7 7 7 8 8 8 7 7 8 8 8 8
9 9 9 9 8 8 8 8 8 7 8 8 8 8 8 8 8 8 8 8 8 7 7 6 7 8 8 8 7 8 7 7
10 10 9 9 9 8 8 8 8 8 8 8 8 8 7 7 7 7 7 7 7 7 7 7 5 6 5 6 7 7 7 6
10 10 10 9 9 9 8 8 8 8 8 8 8 7 7 7 7 7 7 7 7 7 7 6 4 5 4 5 6 6 6 5
11 10 10 9 9 9 8 8 8 8 8 8 7 7 7 7 7 7 7 7 7 7 6 6 5 3 4 3 5 6 4 4
11 10 10 9 9 9 8 8 8 8 8 7 7 7 6 6 6 7 7 6 6 6 5 5 5 4 2 3 3 2 2 4
11 10 10 9 9 9 8 8 8 8 8 7 6 6 6 6 6 6 6 6 5 5 4 4 3 3 2 1 1 2 1 0
11 10 10 9 9 8 8 8 8 8 7 6 6 6 6 5 5 5 5 4 4 3 3 3 2 1 1 0 -1 -1 -1 -1
11 10 9 9 9 8 8 8 8 7 6 6 6 5 5 5 4 4 4 3 2 2 1 1 1 -0 -1 -1 -2 -3 -3 -3
11 10 9 9 9 8 8 8 7 6 6 6 5 5 4 4 3 3 2 1 1 1 0 -0 -1 -1 -2 -3 -4 -4 -4 -4
Height
1607 1606 1605 1603 1601 1600 1599 1597 1597 1596 1595 1595 1594 1593 1592 1591 1589 1588 1587 1585 1584 1583 1582 1580 1578 1577 1577 1576 1576 1576 1576 1576
1606 1606 1605 1603 1601 1600 1598 1597 1596 1596 1595 1595 1594 1593 1592 1591 1589 1587 1586 1585 1583 1582 1581 1579 1578 1577 1576 1576 1575 1575 1575 1575
1606 1606 1605 1603 1601 1600 1599 1597 1597 1596 1596 1595 1594 1593 1592 1590 1588 1587 1586 1584 1582 1580 1579 1578 1577 1576 1575 1574 1574 1573 1573 1573
1606 1606 1605 1604 1602 1601 1599 1598 1597 1597 1596 1595 1594 1592 1591 1589 1588 1586 1585 1583 1582 1579 1577 1576 1575 1574 1573 1572 1571 1571 1571 1570
1606 1606 1606 1604 1603 1601 1601 1600 1599 1598 1598 1597 1595 1594 1593 1591 1589 1587 1585 1583 1581 1578 1577 1575 1573 1571 1570 1570 1569 1568 1568 1567
1607 1606 1606 1605 1604 1603 1602 1601 1600 1600 1599 1598 1597 1595 1594 1592 1590 1588 1585 1583 1581 1578 1576 1573 1572 1570 1568 1566 1565 1565 1564 1564
1607 1607 1607 1606 1605 1604 1603 1602 1602 1601 1600 1599 1598 1597 1596 1594 1592 1590 1588 1586 1583 1580 1577 1574 1571 1569 1567 1565 1563 1561 1561 1560
1608 1608 1608 1607 1607 1606 1605 1604 1603 1603 1602 1601 1600 1599 1598 1597 1595 1593 1591 1589 1587 1583 1579 1576 1573 1570 1568 1565 1562 1560 1559 1558
1608 1609 1609 1610 1609 1608 1607 1606 1606 1605 1604 1603 1602 1601 1599 1598 1597 1595 1593 1592 1589 1586 1583 1579 1577 1574 1570 1567 1565 1562 1560 1558
1608 1609 1610 1610 1610 1610 1609 1609 1608 1607 1606 1605 1604 1602 1601 1600 1599 1597 1595 1593 1591 1588 1585 1582 1578 1576 1573 1570 1567 1564 1561 1559
1608 1608 1610 1610 1610 1611 1611 1610 1610 1609 1608 1607 1605 1604 1602 1600 1599 1598 1595 1593 1590 1588 1586 1584 1581 1578 1574 1572 1569 1565 1562 1560
1607 1608 1610 1610 1611 1611 1611 1611 1611 1610 1609 1608 1606 1605 1604 1602 1600 1598 1595 1593 1590 1588 1585 1583 1580 1578 1574 1571 1568 1565 1562 1560
1605 1606 1608 1610 1611 1611 1611 1611 1611 1610 1610 1608 1607 1605 1604 1602 1600 1597 1595 1591 1588 1585 1584 1582 1578 1575 1573 1569 1565 1563 1561 1558
1603 1604 1605 1607 1609 1610 1611 1611 1610 1611 1610 1608 1607 1605 1603 1601 1599 1596 1593 1590 1586 1583 1580 1578 1576 1573 1571 1568 1565 1563 1559 1558
1600 1602 1603 1605 1607 1608 1609 1609 1610 1610 1609 1608 1606 1603 1602 1600 1597 1594 1591 1588 1585 1582 1580 1576 1574 1572 1570 1569 1565 1562 1558 1554
1598 1599 1601 1603 1605 1606 1607 1607 1608 1608 1607 1605 1603 1602 1601 1599 1596 1592 1589 1587 1584 1581 1578 1575 1573 1569 1568 1566 1564 1561 1558 1551
1594 1596 1598 1600 1602 1603 1603 1604 1606 1605 1605 1604 1602 1599 1598 1596 1595 1592 1588 1585 1582 1579 1576 1573 1570 1568 1564 1561 1560 1559 1556 1552
1590 1592 1595 1597 1598 1600 1602 1603 1604 1604 1603 1602 1600 1598 1597 1595 1592 1589 1586 1582 1579 1577 1574 1570 1568 1565 1562 1559 1556 1556 1554 1551
1585 1588 1591 1594 1597 1598 1600 1601 1601 1601 1599 1600 1598 1596 1594 1592 1589 1586 1583 1580 1576 1574 1572 1569 1565 1563 1560 1557 1553 1552 1550 1548
1580 1584 1588 1591 1594 1596 1597 1599 1599 1598 1598 1597 1596 1594 1592 1589 1585 1582 1579 1576 1573 1570 1568 1565 1562 1559 1557 1554 1551 1549 1546 1543
Wind_Speed
3 5 7 9 10 11 11 9 6 5 5 4 5 6 6 9 10 10 8 7 7 6 5 5 6 6 7 7 6 6 4 4
1 3 6 10 12 11 9 6 6 5 5 5 6 8 8 8 9 9 10 10 10 9 7 6 6 8 8 8 7 7 7 6
2 4 8 10 10 11 10 9 7 5 5 6 6 8 9 10 11 12 12 11 10 10 10 10 9 9 9 8 8 7 7 8
2 5 7 9 11 11 12 12 11 10 9 9 9 9 9 10 10 11 11 11 12 12 12 12 11 11 9 9 9 10 9 9
5 6 9 10 11 11 12 12 12 12 12 12 13 11 11 12 12 12 11 11 10 10 11 12 12 12 12 12 12 11 11 10
8 9 9 11 12 12 13 13 13 14 15 16 16 16 17 18 18 18 19 19 17 16 14 13 12 11 12 12 12 13 13 11
8 10 11 13 13 14 14 15 16 18 18 19 20 21 21 21 21 22 22 22 22 22 20 18 15 13 10 9 8 7 9 10
10 11 11 12 14 16 17 19 20 21 22 23 23 22 22 22 22 23 23 23 22 23 23 20 18 17 14 12 11 8 5 4
10 9 10 11 14 16 18 19 19 20 20 20 20 20 20 20 21 22 23 24 24 23 23 20 15 14 13 11 10 10 7 5
8 8 8 9 12 14 16 17 17 17 17 17 16 16 17 18 20 21 23 24 25 25 24 22 18 10 9 7 6 7 7 6
8 7 9 9 10 11 12 12 12 12 12 12 12 13 15 18 20 22 22 24 25 27 26 24 22 16 6 4 2 3 5 6
8 7 9 9 9 9 9 9 9 7 8 9 10 12 14 16 18 19 21 22 24 26 26 26 24 23 17 10 12 10 13 10
10 9 9 9 7 7 7 6 5 5 7 7 8 11 13 15 17 18 20 22 24 26 27 26 21 26 18 18 10 13 16 12
12 10 9 9 7 7 6 4 3 2 5 7 9 12 13 16 18 19 21 23 25 28 29 28 21 22 19 14 12 11 4 17
12 11 10 9 8 9 7 5 4 1 3 6 10 13 15 16 17 19 22 24 26 27 27 27 24 19 15 8 9 7 23 3
13 12 12 11 11 11 9 8 6 4 4 7 9 13 14 15 16 19 21 23 24 25 24 23 21 20 13 9 9 11 11 17
15 14 15 14 13 13 11 10 8 7 7 7 10 13 14 16 18 20 21 23 24 24 23 21 19 18 17 15 11 9 7 13
20 18 17 17 16 14 12 11 10 10 9 9 11 13 15 16 18 20 22 23 23 22 21 20 19 17 16 15 11 9 11 12
24 22 21 19 17 16 14 14 14 13 10 10 11 13 14 16 19 21 23 23 22 20 19 19 20 19 18 16 13 11 11 12
28 25 23 22 20 18 17 17 15 12 10 11 12 12 14 17 20 21 22 22 21 21 20 19 18 17 18 16 13 11 13 14
Wind_Direction
322 344 342 357 1 355 358 4 5 5 5 357 1 353 345 341 350 356 350 347 344 336 333 321 307 285 277 280 270 252 254 303
10 351 349 351 352 358 13 13 19 10 0 357 348 338 336 339 346 345 346 346 342 330 323 313 310 311 298 277 272 262 258 269
42 0 352 354 11 33 39 45 39 26 20 5 346 340 337 337 338 333 331 331 330 323 314 306 306 299 302 298 273 268 259 262
32 7 8 26 35 45 49 53 52 47 43 36 26 14 6 1 354 351 346 335 326 321 316 306 299 293 287 291 287 274 272 266
72 62 52 51 57 61 61 59 56 54 51 47 42 37 36 32 33 30 23 15 4 349 333 323 315 304 298 289 284 285 279 283
89 79 70 66 63 64 65 66 64 62 59 58 55 52 51 48 46 43 40 36 27 20 11 359 346 331 315 304 291 278 277 279
103 96 81 69 65 68 72 74 73 72 71 68 64 60 56 52 48 45 41 35 28 20 18 16 15 12 360 339 324 306 273 265
117 105 87 81 75 76 79 80 81 80 77 72 67 62 56 51 47 44 40 36 32 27 21 19 19 23 24 24 20 11 354 300
128 119 100 90 82 85 86 85 83 80 76 71 66 61 56 51 45 41 38 33 31 31 30 27 27 36 33 38 44 48 46 50
146 135 121 111 94 92 91 88 86 83 78 73 65 57 51 46 39 34 28 24 23 25 23 26 21 19 37 49 57 62 55 45
166 153 146 131 111 98 92 93 88 81 73 64 53 41 34 30 24 19 15 12 11 12 13 15 15 15 335 332 5 41 37 18
174 157 156 148 134 116 99 93 89 77 60 45 31 22 18 14 11 7 5 5 3 3 1 1 2 359 358 319 264 272 301 328
181 171 172 166 160 139 116 110 117 81 52 35 17 7 1 359 357 357 359 359 357 354 353 352 354 351 348 343 327 272 276 319
191 182 178 181 177 171 153 139 155 64 19 14 11 2 353 349 349 351 354 352 350 349 347 346 345 350 346 342 332 329 293 322
193 191 190 190 188 185 185 185 195 281 350 354 358 354 346 342 343 346 345 344 344 343 340 340 340 343 347 336 331 310 320 315
196 194 195 197 193 191 204 202 208 255 310 330 339 339 336 335 337 338 339 340 339 339 338 335 330 330 337 321 303 303 308 310
201 197 198 202 198 202 209 207 228 264 286 301 317 328 330 331 333 336 338 340 339 337 336 334 330 325 323 325 318 305 292 298
205 203 200 203 203 208 214 229 255 272 278 290 310 318 322 325 330 336 339 339 338 337 336 331 330 328 324 326 333 331 309 308
209 205 204 207 209 214 227 241 256 262 259 278 299 311 317 324 332 336 338 338 338 336 334 331 328 327 327 326 325 325 321 316
212 209 207 212 217 224 234 246 251 246 259 285 302 313 323 330 334 337 339 337 336 333 332 331 327 324 324 325 327 323 320 315